Temp
12 11 11 10 10 9 9 9 9 9 9 9 10 10 9 8 7 6 6 5 5 5 5 5 5 4 4 3 3 3 3 3 4 5 4 4 4 4 5 5 5 6 6
12 11 11 10 10 9 9 9 9 9 9 9 9 9 8 7 6 5 5 5 5 5 4 4 4 4 4 3 3 3 2 3 3 4 4 4 3 3 4 5 5 5 6
12 11 11 10 10 10 9 8 9 8 8 9 9 9 7 7 6 5 5 5 4 4 4 4 3 3 3 3 2 2 2 2 3 3 3 3 3 3 4 4 5 5 5
13 12 11 10 10 10 9 8 8 8 8 8 8 7 7 6 5 5 5 5 4 4 4 3 3 3 2 2 2 2 2 2 2 2 2 3 3 3 3 4 5 5 5
13 12 12 11 10 9 9 9 8 8 7 6 6 6 6 5 5 5 4 4 4 3 3 2 2 2 2 2 2 2 2 2 2 2 2 2 3 2 3 3 3 4 5
13 13 10 9 8 7 6 7 8 7 6 6 5 5 5 5 4 4 4 4 3 3 2 2 2 2 2 2 1 1 1 2 1 2 2 2 2 2 2 1 1 2 5
12 11 9 8 5 8 8 6 7 6 6 6 5 5 5 5 4 4 4 3 3 3 2 2 1 2 2 2 1 1 1 1 1 1 2 1 0 1 1 1 -0 -1 2
12 12 10 8 7 8 8 6 7 5 6 5 5 4 4 4 4 4 3 3 2 3 2 2 2 2 1 1 1 1 1 1 1 1 1 1 0 -0 -1 -1 -1 -1 0
12 11 9 8 8 8 8 7 6 4 5 5 5 5 5 4 3 3 3 3 3 3 2 2 2 1 0 1 1 2 1 2 1 1 1 1 -0 -0 -1 -1 -0 -0 -0
11 10 9 8 7 8 7 6 5 4 5 5 5 4 4 4 2 2 4 3 3 2 2 2 2 1 0 1 1 2 2 1 2 2 1 0 -0 -1 -1 -1 -0 -0 0
10 9 8 8 8 8 6 5 4 4 4 4 5 4 4 3 3 3 3 3 3 2 2 2 1 1 1 1 1 1 1 1 2 2 1 1 0 -0 0 -1 -0 0 3
9 9 9 9 8 7 5 5 4 2 4 4 4 4 3 3 3 2 2 3 2 2 2 1 1 1 1 1 1 1 1 2 2 2 1 0 0 1 0 -1 0 3 3
9 9 8 7 7 6 5 4 5 4 3 4 3 3 3 3 2 2 2 2 1 2 2 1 1 1 1 1 1 1 1 2 2 1 0 0 0 -0 -0 -0 0 3 3
8 7 7 6 6 5 5 4 5 3 3 4 4 3 3 2 2 2 2 1 1 2 1 1 1 0 1 1 1 1 1 2 1 1 0 -0 -0 -0 -0 -0 -0 2 3
7 6 6 6 6 5 5 5 4 3 3 3 3 3 2 2 2 2 1 1 1 1 1 1 0 0 0 1 1 1 1 1 -0 -0 -1 -0 -1 -0 -1 -1 -1 2 3
6 6 5 6 6 5 5 4 4 3 3 3 3 2 2 2 2 2 1 1 1 1 1 1 -0 -0 1 0 1 1 1 0 0 0 -1 -1 -1 -1 -1 -1 -1 0 3
6 6 6 5 5 5 4 4 3 3 3 2 2 2 2 1 1 1 1 1 1 1 0 -1 -1 0 0 0 0 0 0 0 0 -1 -1 -1 -1 -1 -0 -1 -0 -0 0
5 5 5 5 4 4 4 3 3 2 2 2 2 1 1 1 1 1 1 1 1 0 -1 -1 -0 -0 0 0 0 -0 -0 -0 -0 -1 -1 -1 -0 -0 -1 -1 -1 -1 -1
4 4 4 4 4 4 3 3 2 2 1 1 1 1 1 0 0 0 0 0 0 -0 -1 -1 -1 -1 -0 0 0 -0 -0 -0 -0 -0 -0 0 0 0 -0 -1 -1 -1 -1
4 4 3 3 3 3 2 2 2 1 1 0 0 0 -0 -0 -0 -0 0 0 -0 -0 -0 -1 -1 -1 -0 -0 -0 -0 -1 -0 -0 -0 -0 -0 0 0 -0 -1 -1 -1 -1
4 3 3 2 2 2 2 1 1 -0 -0 -1 -1 -0 -1 -1 -1 -0 0 -0 0 0 -0 -1 -1 -0 -0 -1 -1 -1 -1 -1 -1 -1 -1 -1 -0 -0 -0 -0 -1 -1 -1
2 3 2 2 1 1 0 0 -1 -1 -1 -1 -0 -0 -0 -1 -1 -1 -1 -1 -0 -0 -0 -1 -1 -1 -1 -1 -1 -1 -1 -1 -1 -1 -1 -1 -1 -1 -1 -1 -1 -1 -2
2 2 2 1 0 -0 -0 -1 -1 -1 -3 -2 -2 -1 -1 -1 -1 -2 -1 -1 -1 -1 -1 -1 -1 -1 -1 -1 -1 -2 -1 -1 -1 -2 -1 -1 -1 -1 -1 -1 -1 -1 -1
1 1 0 1 0 -0 -1 -1 -1 -1 -2 -2 -2 -2 -1 -2 -3 -3 -2 -2 -2 -2 -1 -1 -2 -2 -2 -2 -2 -2 -2 -2 -2 -2 -2 -2 -2 -1 -1 -1 -1 -1 -1
0 0 0 0 -1 -1 -2 -2 -2 -2 -2 -2 -2 -2 -3 -3 -3 -3 -3 -2 -2 -2 -2 -2 -2 -2 -2 -2 -2 -3 -3 -3 -2 -2 -2 -2 -2 -2 -2 -2 -2 -2 -1
0 0 -0 -2 -2 -3 -2 -4 -4 -4 -3 -3 -3 -3 -3 -3 -3 -3 -3 -3 -3 -3 -3 -3 -3 -3 -3 -3 -3 -3 -3 -3 -3 -3 -3 -3 -3 -3 -3 -3 -2 -2 -2
Height
3170 3171 3171 3173 3172 3171 3171 3171 3170 3169 3167 3165 3164 3161 3157 3154 3151 3149 3146 3144 3143 3140 3139 3138 3136 3134 3131 3128 3126 3123 3120 3118 3114 3114 3111 3110 3108 3106 3105 3102 3098 3097 3096
3164 3164 3164 3164 3166 3165 3166 3166 3166 3164 3162 3160 3158 3156 3153 3150 3147 3145 3143 3141 3139 3137 3135 3132 3131 3127 3125 3122 3119 3117 3114 3111 3107 3105 3103 3101 3099 3097 3094 3091 3088 3086 3084
3156 3155 3154 3156 3158 3158 3159 3160 3161 3159 3157 3156 3154 3151 3148 3146 3143 3140 3138 3136 3134 3133 3130 3127 3125 3122 3119 3116 3113 3110 3108 3104 3100 3096 3094 3092 3088 3087 3081 3080 3076 3073 3071
3147 3146 3145 3148 3150 3152 3152 3152 3154 3154 3153 3151 3149 3147 3144 3141 3138 3135 3133 3131 3129 3127 3125 3122 3119 3116 3112 3110 3106 3105 3101 3097 3094 3089 3085 3082 3078 3077 3071 3066 3060 3058 3054
3139 3138 3140 3139 3143 3145 3148 3149 3148 3145 3146 3148 3146 3144 3138 3136 3133 3131 3129 3127 3124 3122 3119 3116 3114 3110 3107 3105 3101 3100 3096 3092 3087 3082 3077 3074 3071 3065 3059 3054 3047 3038 3037
3133 3132 3129 3107 3133 3139 3138 3144 3143 3139 3137 3136 3139 3138 3134 3130 3129 3126 3124 3122 3119 3115 3113 3110 3108 3104 3099 3095 3093 3092 3090 3084 3079 3074 3069 3064 3060 3055 3049 3040 3033 3025 3016
3128 3125 3124 3124 3113 3127 3130 3134 3135 3133 3132 3134 3132 3131 3129 3125 3122 3121 3118 3115 3114 3110 3106 3103 3100 3096 3090 3086 3085 3084 3081 3077 3072 3065 3060 3056 3050 3047 3038 3029 3020 3011 3002
3119 3119 3119 3114 3122 3128 3123 3126 3128 3127 3128 3128 3126 3126 3123 3120 3117 3117 3114 3111 3106 3103 3100 3095 3091 3089 3085 3082 3079 3076 3074 3069 3066 3060 3053 3049 3043 3037 3030 3018 3006 2995 2987
3111 3113 3115 3114 3114 3119 3118 3121 3122 3123 3123 3122 3123 3120 3117 3114 3112 3109 3105 3105 3101 3097 3093 3089 3085 3081 3079 3076 3072 3068 3066 3062 3058 3054 3048 3041 3036 3030 3023 3008 2994 2981 2969
3106 3105 3105 3106 3107 3111 3113 3116 3116 3114 3116 3115 3115 3113 3111 3107 3103 3103 3098 3097 3095 3091 3087 3083 3078 3073 3072 3071 3065 3059 3057 3055 3051 3047 3041 3035 3030 3022 3013 2997 2980 2964 2956
3102 3101 3100 3101 3104 3105 3105 3106 3106 3106 3108 3107 3108 3104 3102 3098 3096 3095 3093 3089 3087 3083 3080 3077 3072 3068 3065 3065 3058 3053 3049 3047 3044 3037 3032 3026 3019 3012 3001 2985 2967 2952 2945
3095 3096 3098 3097 3097 3096 3097 3096 3098 3093 3087 3095 3098 3095 3094 3093 3090 3087 3084 3080 3077 3075 3072 3068 3064 3062 3058 3057 3053 3048 3044 3040 3035 3030 3024 3019 3012 3003 2990 2971 2952 2942 2938
3089 3090 3090 3089 3091 3090 3089 3093 3093 3089 3080 3086 3088 3087 3085 3084 3082 3078 3076 3072 3070 3068 3064 3060 3057 3054 3051 3050 3046 3042 3038 3034 3029 3024 3019 3014 3007 2996 2986 2965 2946 2940 2936
3086 3085 3084 3085 3086 3086 3086 3085 3082 3081 3080 3080 3080 3079 3077 3075 3073 3070 3067 3064 3063 3061 3057 3053 3051 3048 3046 3044 3041 3036 3033 3028 3023 3019 3015 3010 3003 2994 2984 2967 2949 2942 2938
3078 3079 3079 3080 3078 3079 3078 3075 3071 3071 3072 3072 3071 3071 3070 3067 3064 3061 3059 3058 3056 3053 3050 3046 3045 3044 3042 3039 3035 3031 3027 3023 3019 3015 3011 3007 3000 2993 2983 2967 2955 2945 2943
3071 3070 3070 3071 3070 3069 3069 3068 3066 3065 3065 3064 3063 3063 3061 3058 3055 3054 3053 3050 3049 3045 3043 3040 3039 3038 3037 3033 3030 3026 3022 3019 3015 3012 3008 3003 2997 2991 2982 2974 2964 2952 2947
3064 3063 3063 3063 3064 3065 3063 3061 3061 3060 3059 3057 3057 3056 3054 3052 3049 3048 3047 3044 3043 3040 3036 3034 3033 3032 3031 3028 3025 3022 3019 3015 3011 3008 3004 3000 2995 2989 2984 2976 2969 2962 2951
3060 3059 3059 3057 3057 3057 3057 3054 3054 3054 3052 3052 3050 3049 3047 3045 3042 3041 3040 3039 3036 3034 3031 3030 3029 3027 3025 3023 3020 3018 3015 3011 3008 3005 3001 2998 2993 2987 2983 2980 2974 2967 2958
3056 3055 3055 3053 3052 3051 3050 3048 3047 3046 3046 3045 3042 3041 3041 3039 3036 3034 3033 3032 3031 3028 3026 3024 3024 3022 3020 3018 3016 3013 3011 3008 3005 3002 2999 2995 2991 2988 2983 2980 2977 2973 2966
3051 3049 3048 3047 3045 3044 3044 3043 3041 3041 3040 3039 3036 3035 3034 3033 3031 3028 3026 3025 3023 3021 3020 3019 3018 3016 3015 3013 3011 3009 3007 3004 3002 2999 2996 2993 2990 2987 2983 2981 2978 2976 2971
3044 3044 3041 3040 3040 3038 3037 3037 3037 3036 3034 3032 3031 3029 3027 3025 3023 3022 3021 3019 3017 3015 3014 3013 3012 3011 3010 3009 3007 3005 3003 3001 2999 2997 2994 2991 2988 2986 2983 2981 2979 2977 2974
3038 3037 3035 3035 3034 3032 3032 3031 3030 3029 3027 3025 3023 3022 3019 3019 3018 3017 3015 3013 3011 3010 3008 3008 3007 3006 3006 3005 3003 3002 3001 2999 2997 2996 2993 2991 2988 2986 2984 2982 2980 2978 2977
3029 3029 3029 3028 3026 3025 3025 3023 3022 3022 3021 3020 3018 3016 3014 3014 3013 3012 3009 3007 3007 3006 3005 3004 3004 3003 3003 3002 3001 3000 2998 2997 2996 2994 2993 2991 2989 2987 2985 2983 2981 2979 2977
3023 3022 3021 3020 3019 3019 3018 3017 3016 3015 3016 3015 3013 3012 3010 3008 3008 3007 3005 3003 3002 3002 3001 3001 3000 3000 3000 3000 2999 2998 2997 2996 2995 2993 2992 2990 2989 2987 2985 2984 2983 2981 2979
3015 3015 3015 3014 3014 3013 3013 3012 3011 3010 3011 3010 3008 3007 3005 3003 3002 3001 3001 2999 2998 2998 2998 2998 2997 2997 2998 2998 2997 2996 2995 2994 2993 2992 2991 2989 2989 2987 2986 2985 2983 2982 2981
3008 3008 3008 3007 3008 3007 3007 3007 3005 3004 3003 3003 3002 3001 2999 2998 2997 2996 2996 2996 2994 2994 2994 2994 2995 2995 2996 2995 2995 2994 2993 2992 2991 2990 2989 2988 2988 2986 2985 2984 2983 2982 2981
Wind_Speed
29 31 31 25 19 24 25 20 19 20 20 21 24 24 23 20 18 17 17 18 19 20 21 22 22 25 24 25 28 30 31 31 32 29 29 27 27 30 31 33 36 35 34
35 36 39 31 20 21 27 23 23 21 21 20 23 23 20 18 18 17 18 18 20 20 22 25 25 26 27 28 29 29 30 31 33 32 31 31 30 31 35 36 36 37 38
34 39 42 38 22 20 24 24 24 21 17 19 20 21 19 17 17 18 19 20 20 21 23 24 22 24 24 26 27 27 29 31 33 34 34 35 37 35 38 34 39 42 43
38 36 43 36 27 21 20 24 24 19 18 16 17 18 18 13 17 18 19 18 20 23 24 22 23 26 26 27 28 27 28 30 32 35 36 38 41 39 39 42 47 47 44
34 38 38 35 32 21 16 20 24 17 15 14 13 17 16 14 18 20 19 21 23 23 21 22 24 27 29 31 31 28 29 31 33 36 38 40 41 41 42 47 52 54 43
34 39 45 52 30 25 23 27 23 15 16 24 14 16 19 18 19 21 23 23 21 25 24 23 24 33 32 31 31 29 30 35 38 38 39 39 37 39 44 48 58 55 50
34 40 49 46 38 21 19 28 22 15 10 12 14 18 22 23 24 25 24 24 23 28 26 28 28 35 30 27 23 27 31 36 37 37 39 35 39 40 47 57 61 58 57
35 37 41 58 28 22 16 24 17 18 14 16 16 21 26 25 26 28 33 28 23 28 26 30 35 39 30 26 24 28 33 34 33 35 37 37 38 42 47 60 63 56 60
30 28 27 25 22 23 18 22 16 15 17 19 24 28 26 24 26 21 29 27 26 30 27 29 36 35 28 29 29 33 34 31 31 32 35 35 34 39 47 59 57 53 61
22 24 23 21 23 23 16 20 20 18 24 24 33 29 25 26 29 28 25 30 31 28 28 30 31 26 21 27 32 33 31 28 28 29 30 29 32 41 46 53 48 53 53
25 25 25 25 25 27 24 23 28 27 24 30 29 29 33 31 20 26 26 32 31 28 29 29 27 24 26 29 29 28 28 26 28 29 29 29 34 41 53 51 42 40 32
23 23 22 28 31 33 26 36 32 25 30 23 32 32 31 28 28 26 29 33 28 26 29 29 27 27 26 29 28 25 25 27 27 27 28 30 35 42 52 46 35 19 20
17 18 26 25 29 30 29 28 35 41 18 25 29 30 27 28 26 28 30 28 25 26 27 28 25 26 26 28 27 26 26 25 24 24 26 28 32 41 52 43 22 9 15
19 23 25 23 31 22 23 21 24 33 24 27 28 28 28 26 28 31 27 26 27 29 29 29 26 23 23 24 24 23 24 23 21 22 23 26 28 36 44 48 40 14 6
24 27 24 28 27 38 39 28 24 28 30 26 28 27 26 28 29 27 27 28 29 31 29 27 21 20 24 23 22 22 22 21 20 21 21 21 28 35 37 48 42 16 3
18 22 16 11 17 21 20 22 21 21 24 27 27 26 27 28 28 30 29 30 30 28 25 21 18 20 21 20 19 20 21 21 21 20 17 22 27 29 30 36 41 32 5
20 19 21 16 15 18 20 18 21 24 27 27 28 28 28 29 31 29 30 29 25 24 26 17 18 18 18 20 20 20 21 22 21 19 18 20 23 26 26 27 34 38 31
22 22 17 17 19 18 18 20 25 26 28 29 28 28 28 31 29 30 26 23 22 22 16 15 16 16 17 19 20 20 19 18 18 17 18 19 20 21 19 17 24 28 33
18 17 22 19 15 18 20 21 22 24 25 27 27 26 27 27 28 27 26 21 20 20 16 16 19 20 22 21 20 19 18 17 16 17 17 16 15 15 16 15 17 21 24
15 11 12 18 17 19 20 20 20 19 19 23 25 24 22 21 21 22 22 21 20 20 19 16 20 22 23 21 18 18 16 16 15 15 14 13 13 12 12 11 12 12 19
21 17 21 22 19 18 18 19 18 17 20 19 18 20 22 20 19 21 20 17 17 17 17 19 20 20 19 17 16 15 13 12 10 10 10 11 11 11 11 10 9 11 12
19 22 21 19 20 21 19 17 17 16 20 16 19 19 19 16 15 16 17 16 15 16 17 17 17 16 15 14 12 10 8 7 6 6 7 8 9 11 11 11 10 9 8
26 24 21 19 18 19 17 19 20 18 19 20 19 20 18 14 15 15 16 16 14 14 14 14 13 11 10 8 6 6 5 5 5 5 6 7 8 9 10 10 11 11 10
23 21 19 17 19 19 19 22 23 20 16 18 21 20 19 19 20 17 15 17 14 14 13 11 10 8 6 5 4 4 5 5 6 6 7 6 6 7 8 9 10 11 12
22 20 19 19 20 23 24 24 23 19 16 17 18 17 18 21 20 17 13 14 15 14 11 9 8 7 6 5 4 4 6 6 7 8 8 7 6 6 6 6 7 7 8
23 22 22 19 23 24 23 20 18 20 18 20 18 19 20 21 18 15 12 12 15 14 11 10 8 8 8 7 6 6 6 7 7 8 9 8 7 6 5 5 5 6 6
Wind_Direction
257 255 241 262 279 262 264 271 284 298 313 327 332 328 325 318 311 307 307 304 302 300 298 295 296 290 288 290 293 296 297 298 295 293 293 291 287 288 290 288 286 284 280
257 255 252 264 278 269 259 266 281 293 305 320 324 321 316 314 311 306 302 304 308 309 305 300 295 289 291 292 294 297 301 299 297 297 294 291 294 295 295 294 291 286 280
262 260 256 261 272 288 261 261 275 286 301 311 315 315 315 315 314 314 313 309 310 307 301 299 296 293 291 290 294 296 298 298 299 299 298 299 299 301 295 296 300 296 287
267 267 264 264 264 273 262 255 269 280 293 299 308 309 315 317 317 319 318 313 311 302 304 306 307 304 299 296 293 296 297 299 299 298 299 300 301 302 296 297 301 299 288
273 268 267 262 257 267 275 276 259 266 286 291 303 316 322 322 319 319 317 309 309 310 304 309 307 306 302 294 295 298 298 301 302 302 302 301 303 301 301 301 305 302 289
271 266 262 239 246 255 242 258 246 249 253 286 298 305 317 320 315 314 315 315 314 318 303 301 306 313 303 293 288 291 296 303 306 304 302 303 304 308 309 310 313 303 294
273 279 265 262 266 282 239 225 237 261 295 288 279 298 308 301 302 301 311 312 310 314 294 299 300 317 310 304 290 292 299 303 303 302 301 303 305 313 311 310 312 309 301
271 271 272 273 274 289 255 229 225 269 275 275 295 286 290 294 295 304 308 303 301 313 301 303 300 309 296 294 296 296 298 303 299 297 301 306 307 310 308 315 309 303 296
271 279 273 272 284 285 253 226 231 252 271 293 280 284 288 294 288 305 309 297 301 311 303 302 303 303 294 291 297 300 302 303 297 298 305 305 306 314 313 307 310 300 292
271 268 263 261 280 272 234 232 244 259 267 280 279 279 286 299 302 288 297 293 298 306 302 303 310 302 304 303 301 299 301 300 297 304 305 304 309 318 317 319 310 296 291
261 254 246 252 258 244 221 228 242 250 258 265 272 279 290 285 275 296 289 293 298 301 302 300 305 301 300 302 302 302 301 299 305 310 309 315 321 321 327 323 307 291 282
269 258 256 267 268 236 226 237 250 241 244 265 277 284 286 281 294 293 293 294 296 298 299 303 302 297 294 299 298 301 302 307 311 314 318 321 324 333 334 335 318 278 280
270 262 271 265 246 224 238 272 286 293 287 281 280 279 286 289 287 294 297 293 297 300 304 312 301 294 291 299 299 298 303 309 312 319 321 323 329 332 337 353 342 328 287
269 289 272 243 225 224 267 270 273 270 281 289 287 286 292 286 289 296 295 294 298 303 306 308 301 292 297 299 299 301 305 310 316 319 325 332 335 343 344 356 7 331 301
299 294 286 266 271 255 263 276 256 269 278 286 293 294 290 289 294 300 301 299 303 302 302 301 290 295 299 301 304 307 309 316 314 314 317 326 336 340 351 357 12 5 351
273 280 287 259 259 253 245 254 271 282 284 283 283 284 288 292 296 298 297 301 303 301 298 291 285 293 297 304 310 310 312 313 310 314 318 325 332 342 350 1 7 36 21
283 281 271 250 236 245 247 255 271 270 276 284 285 286 288 292 295 293 298 296 292 298 298 285 289 293 300 306 309 307 307 310 313 318 320 325 333 339 347 358 5 18 53
301 282 254 249 247 253 257 260 267 272 275 276 277 281 283 290 290 291 288 292 294 294 300 276 286 299 304 305 304 304 306 311 316 315 315 321 333 338 348 352 8 18 18
318 289 285 265 266 264 263 267 263 265 268 278 281 280 281 283 283 285 291 288 287 286 301 281 281 295 305 305 305 305 307 310 315 318 321 330 341 340 349 352 9 18 23
304 294 267 265 261 258 256 267 272 267 271 285 281 277 273 276 281 288 290 289 287 287 285 285 281 287 296 302 304 302 306 310 316 321 327 335 344 345 348 354 356 15 20
293 287 296 281 268 259 264 265 267 271 280 279 279 279 281 285 287 282 282 288 287 286 283 278 281 286 294 297 297 299 305 311 320 327 339 350 357 0 357 359 360 8 6
271 283 285 277 260 269 266 267 282 290 296 292 294 290 285 281 287 289 288 293 289 281 279 279 281 286 290 292 294 298 305 319 334 350 359 6 10 16 18 19 12 9 22
271 274 270 272 262 262 253 278 293 290 286 292 301 305 301 303 307 309 297 296 292 285 277 275 276 279 279 279 283 294 310 325 341 353 357 5 13 14 15 23 26 23 20
270 274 275 268 263 258 269 280 282 285 286 293 296 294 296 306 308 307 297 290 284 275 272 271 270 265 260 262 275 297 313 323 326 329 335 346 355 4 12 18 28 33 33
275 276 278 277 266 266 275 281 276 271 276 284 291 291 297 304 302 297 290 279 273 267 263 257 254 248 252 261 267 280 296 306 310 314 320 326 338 345 354 1 4 14 24
270 271 273 269 276 283 286 292 292 296 297 302 304 309 307 302 293 289 283 268 264 258 253 249 240 250 260 270 278 285 287 292 299 305 308 313 321 328 341 351 359 7 9